{"data":{"norad_id":62033,"epoch":"2026-05-25T02:52:39.790272Z","epoch_age_seconds":67709,"freshness":"FRESH","line1":"1 62033U 24216B   26145.11990498  .00006732  00000+0  25395-3 0  9992","line2":"2 62033  42.9991 191.7000 0000537 292.5909  67.4885 15.27578505 85487","mean_motion":15.27578505,"eccentricity":5.37e-5,"inclination_deg":42.9991,"raan_deg":191.7,"arg_perigee_deg":292.5909,"mean_anomaly_deg":67.4885,"bstar":0.00025395,"rev_number":8548,"period_min":94.266840969983,"perigee_km":482.68512667738,"apogee_km":483.42201854488,"semimajor_km":6861.1905726111,"source":"CELESTRAK","updated_at":"2026-05-25T13:38:19.523498Z"}}